Weather History for Platteville, WI

Change the Weather History Date:

Saturday, December 29, 2012

  Actual Average (KDBQ) Record (KDBQ)
Temperature  
Mean Temperature 14 °F 20 °F  
Max Temperature 23 °F 27 °F 52 °F (1984)
Min Temperature 6 °F 12 °F -18 °F (1880)
Degree Days  
Heating Degree Days 50 46  
Month to date heating degree days 1220  
Since 1 July heating degree days 2720  
Cooling Degree Days 0 0  
Month to date cooling degree days 0  
Year to date cooling degree days 643  
Moisture  
Dew Point 14 °F    
Average Humidity 85    
Maximum Humidity 93    
Minimum Humidity 79    
Precipitation  
Precipitation 0.00 in 0.05 in 0.84 in (1885)
Month to date precipitation 1.76  
Year to date precipitation 36.21  
Snow  
Snow 0.00 in 0.40 in - ()
Month to date snowfall 11.1  
Since 1 July snowfall 13.9  
Snow Depth -    
Sea Level Pressure  
Sea Level Pressure 30.05 in    
Wind  
Wind Speed 9 mph (WNW)    
Max Wind Speed 15 mph    
Max Gust Speed 21 mph    
T = Trace of Precipitation, MM = Missing Value Source: NWS Daily Summary

Daily Weather History Graph

Daily Weather History Graph

Search for Another Location

Airport:

Trip Planner

Search our weather history database for the weather conditions in past years. The results will help you decide how hot, cold, wet, or windy it might be!

Date:

Astronomy

Dec. 29, 2012 Rise Set
Actual Time 7:31 AM CST 4:36 PM CST
Civil Twilight 6:59 AM CST 5:08 PM CST
Nautical Twilight 6:24 AM CST 5:44 PM CST
Astronomical Twilight 5:49 AM CST 6:18 PM CST
Moon 6:12 PM CST (12/29) 8:03 AM CST (12/29)
Length of Visible Light 10h 09m
Length of Day
9h 04m
Full, 98% of the Moon is Illuminated
Dec 29
Full
Jan 4
Last Quarter
Jan 11
New
Jan 18
First Quarter
Jan 26
Full

Hourly Weather History & Observations

Time (CST) Temp. Windchill Dew Point Humidity Pressure Visibility Wind Dir Wind Speed Gust Speed Precip Events Conditions
12:15 AM 21.2 °F 12.6 °F 19.4 °F 93% 29.92 in - NW 6.9 mph - N/A   Overcast
1:15 AM 23.0 °F 17.0 °F 21.2 °F 93% 29.91 in - NW 4.6 mph - N/A   Overcast
1:35 AM 23.0 °F 13.9 °F 21.2 °F 93% 29.91 in - NW 8.1 mph - N/A   Overcast
2:15 AM 23.0 °F 12.4 °F 21.2 °F 93% 29.92 in - NW 10.4 mph - N/A   Overcast
2:35 AM 23.0 °F 13.1 °F 21.2 °F 93% 29.92 in - NW 9.2 mph - N/A   Overcast
2:55 AM 23.0 °F 13.1 °F 19.4 °F 86% 29.93 in - NNW 9.2 mph - N/A   Overcast
3:15 AM 23.0 °F 12.4 °F 19.4 °F 86% 29.93 in - NW 10.4 mph - N/A   Overcast
3:35 AM 23.0 °F 12.4 °F 19.4 °F 86% 29.93 in - NW 10.4 mph - N/A   Overcast
4:15 AM 23.0 °F 12.4 °F 19.4 °F 86% 29.94 in - NW 10.4 mph - N/A   Overcast
4:35 AM 23.0 °F 13.9 °F 19.4 °F 86% 29.94 in - NW 8.1 mph - N/A   Overcast
4:55 AM 23.0 °F 15.8 °F 19.4 °F 86% 29.94 in - WNW 5.8 mph - N/A   Overcast
5:15 AM 23.0 °F 13.1 °F 19.4 °F 86% 29.94 in - WNW 9.2 mph - N/A   Overcast
5:35 AM 23.0 °F 13.1 °F 19.4 °F 86% 29.95 in - NW 9.2 mph - N/A   Overcast
5:55 AM 23.0 °F 13.1 °F 19.4 °F 86% 29.95 in - WNW 9.2 mph - N/A   Overcast
6:15 AM 23.0 °F 12.4 °F 19.4 °F 86% 29.96 in - WNW 10.4 mph - N/A   Overcast
6:35 AM 23.0 °F 13.9 °F 19.4 °F 86% 29.96 in - WNW 8.1 mph - N/A   Overcast
7:15 AM 23.0 °F 13.1 °F 19.4 °F 86% 29.97 in - WNW 9.2 mph - N/A   Overcast
7:35 AM 23.0 °F 14.7 °F 19.4 °F 86% 29.97 in - WNW 6.9 mph - N/A   Overcast
7:55 AM 23.0 °F 13.1 °F 19.4 °F 86% 29.98 in - WNW 9.2 mph - N/A   Overcast
8:15 AM 23.0 °F 12.4 °F 19.4 °F 86% 29.98 in - WNW 10.4 mph 16.1 mph N/A   Overcast
8:35 AM 23.0 °F 12.4 °F 19.4 °F 86% 29.99 in - WNW 10.4 mph - N/A   Overcast
8:55 AM 23.0 °F 11.7 °F 19.4 °F 86% 29.99 in - WNW 11.5 mph - N/A   Overcast
9:15 AM 23.0 °F 11.1 °F 19.4 °F 86% 30.00 in - WNW 12.7 mph - N/A   Overcast
9:35 AM 23.0 °F 11.1 °F 19.4 °F 86% 30.01 in - WNW 12.7 mph - N/A   Overcast
9:55 AM 23.0 °F 11.1 °F 17.6 °F 80% 30.02 in - WNW 12.7 mph - N/A   Overcast
10:15 AM 23.0 °F 11.1 °F 17.6 °F 80% 30.03 in - WNW 12.7 mph 20.7 mph N/A   Overcast
10:35 AM 21.2 °F 8.3 °F 17.6 °F 86% 30.03 in - WNW 13.8 mph - N/A   Overcast
10:55 AM 21.2 °F 8.9 °F 17.6 °F 86% 30.04 in - WNW 12.7 mph - N/A   Overcast
11:15 AM 21.2 °F 8.9 °F 15.8 °F 80% 30.04 in - WNW 12.7 mph - N/A   Overcast
11:35 AM 21.2 °F 8.9 °F 15.8 °F 80% 30.04 in - WNW 12.7 mph - N/A   Overcast
12:15 PM 21.2 °F 8.3 °F 15.8 °F 80% 30.04 in - WNW 13.8 mph - N/A   Overcast
12:35 PM 21.2 °F 9.5 °F 15.8 °F 80% 30.04 in - WNW 11.5 mph - N/A   Overcast
12:55 PM 21.2 °F 9.5 °F 15.8 °F 80% 30.04 in - WNW 11.5 mph 19.6 mph N/A   Overcast
4:15 PM 19.4 °F 5.5 °F 14.0 °F 80% 30.11 in - West 15.0 mph - N/A   Overcast
4:35 PM 19.4 °F 5.5 °F 14.0 °F 80% 30.11 in - West 15.0 mph - N/A   Overcast
4:55 PM 19.4 °F 6.6 °F 14.0 °F 80% 30.13 in - West 12.7 mph - N/A   Overcast
5:15 PM 17.6 °F 7.3 °F 12.2 °F 79% 30.13 in - West 8.1 mph - N/A   Overcast
5:35 PM 15.8 °F 3.4 °F 10.4 °F 79% 30.13 in - West 10.4 mph - N/A   Scattered Clouds
5:55 PM 14.0 °F 2.0 °F 10.4 °F 86% 30.13 in - West 9.2 mph - N/A   Clear
6:15 PM 14.0 °F 2.9 °F 10.4 °F 86% 30.14 in - West 8.1 mph - N/A   Unknown
6:35 PM 12.2 °F 0.7 °F 8.6 °F 85% 30.14 in - West 8.1 mph - N/A   Unknown
6:55 PM 14.0 °F 5.1 °F 8.6 °F 79% 30.14 in - West 5.8 mph - N/A   Clear
7:15 PM 12.2 °F -0.2 °F 8.6 °F 85% 30.15 in - West 9.2 mph - N/A   Unknown
7:35 PM 10.4 °F -2.4 °F 8.6 °F 92% 30.16 in - WSW 9.2 mph - N/A   Unknown
7:55 PM 10.4 °F -1.5 °F 8.6 °F 92% 30.16 in - WSW 8.1 mph - N/A   Unknown
8:15 PM 12.2 °F -1.8 °F 8.6 °F 85% 30.17 in - WSW 11.5 mph - N/A   Unknown
8:55 PM 10.4 °F -2.4 °F 8.6 °F 92% 30.18 in - West 9.2 mph - N/A   Unknown
9:15 PM 10.4 °F -0.4 °F 5.0 °F 79% 30.18 in - WSW 6.9 mph - N/A   Unknown
9:35 PM 8.6 °F -2.6 °F 5.0 °F 85% 30.18 in - WSW 6.9 mph - N/A   Unknown
9:55 PM 8.6 °F -3.7 °F 5.0 °F 85% 30.18 in - WSW 8.1 mph - N/A   Unknown
10:15 PM 8.6 °F -1.3 °F 5.0 °F 85% 30.18 in - WSW 5.8 mph - N/A   Unknown
10:35 PM 8.6 °F -2.6 °F 5.0 °F 85% 30.19 in - WSW 6.9 mph - N/A   Unknown
10:55 PM 8.6 °F -2.6 °F 5.0 °F 85% 30.19 in - WSW 6.9 mph - N/A   Unknown
11:15 PM 8.6 °F -1.3 °F 3.2 °F 79% 30.19 in - WSW 5.8 mph - N/A   Unknown
11:35 PM 6.8 °F -7.8 °F 3.2 °F 85% 30.20 in - WSW 10.4 mph - N/A   Unknown
11:55 PM 8.6 °F -2.6 °F 5.0 °F 85% 30.19 in - WSW 6.9 mph - N/A   Unknown